Content
SEND FEEDBACK

Daily
Averages
Monthly
Summary
French Polynesia

FAAA, FRENCH POLYNESIA


Home > Oceania > French Polynesia
Elevation: 7 feet     Latitude: 17 33S     Longitude: 149 37W

WEATHER
 
SELECT A DAY
Number of Records: 208,679;   Date Range: 6/30/96 - 8/10/14
 
SHARE

PRINT THIS DATA

[ ← Previous Day ]
WEATHER ALMANAC - JANUARY 18, 2013
[ Next Day → ]
[ °C ]   °F
Weather ElementAverageHighLow
Temperature79.6 °F83 °F (11:00 am)75.2 °F (1:00 am)
Dewpoint70.8 °F76 °F (11:00 am)62.6 °F (11:30 pm)
Humidity73.7 %89 % (12:30 pm)54 % (11:00 pm)
Barometer29.78 in29.84 in (11:00 pm)29.71 in (4:00 pm)
Wind Speed18.4 mph38 mph (5:00 am)
Wind Gust54.1 mph (12:30 pm)
Weather ElementAverage
Visibility6.7 mi
Wind DirectionENE (66.7 °)

Weather ElementTotal
Precipitation---
Cooling Degree Days14.1 (Base 65)
Growing Degree Days29.1 (Base 50)
Averaged from 55 records on January 18, 2013
WEATHER CONDITIONS BREAKOUT
WIND DIRECTION BREAKOUT
WEATHER BY HOUR - JANUARY 18, 2013
[ °C ]   °F
Local TimeTemperatureDewpointHumidityBarometerVisibilityWind DirectionWind SpeedGust SpeedPrecipitationEventsConditions
12:30 AM77.0 °F66.2 °F69 %29.80 in6.2 miENE (70°)17.3 mphRainLight Rain
1:00 AM75.2 °F68.0 °F78 %29.80 in6.2 miENE (70°)16.1 mphRainLight Rain
1:30 AM77.0 °F68.0 °F74 %29.77 in6.2 miENE (60°)16.1 mphRainLight Rain
2:00 AM78.0 °F67.0 °F60 %29.77 in12.0 miENE (70°)33.6 mphRainLight Rain
2:00 AM78.8 °F66.2 °F65 %29.74 in6.2 miENE (70°)17.3 mphMostly Cloudy
2:30 AM78.8 °F68.0 °F69 %29.74 in6.2 miENE (60°)15.0 mphMostly Cloudy
3:00 AM78.8 °F69.8 °F74 %29.74 in6.2 miNE (50°)15.0 mphMostly Cloudy
3:30 AM80.6 °F69.8 °F70 %29.74 in6.2 miENE (60°)15.0 mphMostly Cloudy
4:00 AM78.8 °F69.8 °F74 %29.74 in6.2 miENE (60°)17.3 mphMostly Cloudy
4:30 AM78.8 °F69.8 °F74 %29.74 in6.2 miENE (60°)16.1 mphMostly Cloudy
5:00 AM79.0 °F70.0 °F68 %29.76 in37.0 miENE (60°)38.0 mphClear
5:00 AM78.8 °F69.8 °F74 %29.74 in6.2 miENE (60°)19.6 mphMostly Cloudy
5:30 AM80.6 °F69.8 °F70 %29.77 inENE (70°)16.1 mph
6:00 AM80.6 °F69.8 °F70 %29.77 in6.2 miENE (70°)17.3 mphMostly Cloudy
6:30 AM80.6 °F71.6 °F74 %29.77 in6.2 miENE (60°)16.1 mphMostly Cloudy
7:00 AM77.0 °F71.6 °F83 %29.77 in1.9 miENE (70°)12.7 mphRainLight Rain
7:30 AM78.8 °F73.4 °F83 %29.80 in6.2 miENE (70°)15.0 mphMostly Cloudy
8:00 AM79.0 °F74.0 °F79 %29.81 in6.0 miENE (70°)35.8 mphRainLight Rain Showers
8:00 AM78.8 °F73.4 °F83 %29.80 in6.2 miENE (70°)18.4 mph31.1 mphMostly Cloudy
8:30 AM80.6 °F73.4 °F79 %29.80 in6.2 miENE (70°)17.3 mphMostly Cloudy
9:00 AM78.8 °F71.6 °F78 %29.80 in5.6 miNE (50°)20.7 mph35.7 mphMostly Cloudy
9:30 AM78.8 °F73.4 °F83 %29.80 in6.2 miENE (60°)11.5 mphMostly Cloudy
10:00 AM82.4 °F71.6 °F70 %29.80 in6.2 miNE (40°)20.7 mphMostly Cloudy
10:30 AM82.4 °F75.2 °F79 %29.80 in6.2 miNE (40°)16.1 mphMostly Cloudy
11:00 AM83.0 °F76.0 °F74 %29.80 in9.0 miNE (40°)35.8 mphPartly Cloudy
11:00 AM82.4 °F75.2 °F79 %29.80 in6.2 miNE (40°)18.4 mphMostly Cloudy
11:30 AM82.4 °F75.2 °F79 %29.77 in6.2 miNE (40°)17.3 mphMostly Cloudy
12:00 PM80.6 °F73.4 °F79 %29.77 in6.2 miENE (70°)11.5 mphMostly Cloudy
12:30 PM75.2 °F71.6 °F89 %29.77 in1.2 miNorth (360°)33.4 mph54.1 mphRainLight Rain
1:00 PM80.6 °F75.2 °F84 %29.77 in6.2 miNNE (20°)15.0 mphRainLight Rain
1:30 PM80.6 °F71.6 °F74 %29.77 in6.2 miNNE (30°)24.2 mph35.7 mphMostly Cloudy
2:00 PM76.0 °F70.0 °F77 %29.78 in6.0 miNE (40°)23.0 mphRainLight Rain
2:00 PM77.0 °F69.8 °F78 %29.77 in5.6 miNE (40°)23.0 mphRainLight Rain
2:30 PM77.0 °F69.8 °F78 %29.74 in6.2 miEast (90°)16.1 mphRainLight Rain
3:00 PM80.6 °F64.4 °F58 %29.74 in6.2 miEast (80°)16.1 mph28.8 mphMostly Cloudy
3:30 PM80.6 °F68.0 °F65 %29.74 in6.2 miENE (60°)11.5 mphMostly Cloudy
4:00 PM80.6 °F71.6 °F74 %29.71 in6.2 miENE (60°)13.8 mphMostly Cloudy
4:30 PM82.4 °F71.6 °F70 %29.71 in6.2 miENE (70°)16.1 mphMostly Cloudy
5:00 PM82.0 °F72.0 °F64 %29.74 in12.0 miENE (60°)24.6 mphPartly Cloudy
5:00 PM82.4 °F71.6 °F70 %29.74 in6.2 miENE (60°)12.7 mphMostly Cloudy
5:30 PM82.4 °F71.6 °F70 %29.74 in6.2 miENE (60°)12.7 mphMostly Cloudy
6:00 PM82.4 °F69.8 °F66 %29.77 in6.2 miENE (70°)12.7 mphMostly Cloudy
6:30 PM80.6 °F71.6 °F74 %29.77 in6.2 miENE (60°)15.0 mphMostly Cloudy
7:00 PM80.6 °F71.6 °F74 %29.80 in6.2 miENE (60°)13.8 mphRainLight Rain
7:30 PM80.6 °F71.6 °F74 %29.80 in5.0 miENE (70°)11.5 mphRainLight Rain
8:00 PM79.0 °F73.0 °F77 %29.81 in6.0 miENE (70°)13.8 mphRainLight Rain
8:00 PM78.8 °F73.4 °F83 %29.80 in6.2 miENE (70°)13.8 mphRainLight Rain
8:30 PM78.8 °F75.2 °F89 %29.80 in6.2 miENE (70°)17.3 mphRainLight Rain
9:00 PM78.8 °F73.4 °F83 %29.83 in5.0 miENE (60°)16.1 mphRainLight Rain
9:30 PM78.8 °F71.6 °F78 %29.83 in5.0 miENE (70°)17.3 mphRainLight Rain
10:00 PM78.8 °F68.0 °F69 %29.83 in5.0 miENE (70°)15.0 mphRainLight Rain
10:30 PM78.8 °F68.0 °F69 %29.83 in5.0 miENE (70°)16.1 mphRainLight Rain
11:00 PM80.0 °F66.0 °F54 %29.84 in6.0 miENE (70°)35.8 mphRainLight Rain
11:00 PM78.8 °F66.2 °F65 %29.83 in6.2 miENE (70°)17.3 mphRainLight Rain
11:30 PM80.6 °F62.6 °F54 %29.80 in6.2 miEast (80°)17.3 mphRainLight Rain
Hourly data recorded from NTAA, located miles away from Faaa, French Polynesia







STORIES FROM OUR PARTNERS